SIRION PATHFINDER-2

Last updated on Sat Aug 15 2026 00:03:44 GMT+0000 (Coordinated Universal Time)

1 43759U 18099B 26226.37904307 .00001994 00000+0 11026-3 0 9991 2 43759 97.4213 274.0572 0010440 97.8003 262.4415 15.14978013421436
UTC large
Height (km)
Speed (km/s)
/
Latitude / Longitude
Inclination (degrees)
Orbital Period (minutes)
Azimuth
Elevation
Range (km)
Doppler Factor

Next 0 passes for location: London (51.5072 / 0.1276)

No passes found over London.
SIRION PATHFINDER-2